This is the latest recevied weather packets stored in our database for station/object W8AN. If no packets are shown the sender has not sent any weather packets the latest 10 day(s).
| Time | Temp. | Humidity | Pressure | Rain* | Wind** | Luminosity | Snow |
|---|---|---|---|---|---|---|---|
| 1778185585 | 13.89° C | 38% | 4267.1 hPa | 0 mm | - | 617 W/m² | - |
| 1778185281 | 13.89° C | 38% | 4267.2 hPa | 0 mm | - | 687 W/m² | - |
| 1778184976 | 13.33° C | 38% | 4267.1 hPa | 0 mm | - | 281 W/m² | - |
| 1778184674 | 14.44° C | 36% | 4267.3 hPa | 0 mm | - | 187 W/m² | - |
| 1778184369 | 14.44° C | 38% | 4267.3 hPa | 0 mm | - | 262 W/m² | - |
| 1778184066 | 14.44° C | 37% | 4267.2 hPa | 0 mm | - | 379 W/m² | - |
| 1778183763 | 13.33° C | 39% | 4267.1 hPa | 0 mm | - | 220 W/m² | - |
| 1778183460 | 13.89° C | 38% | 4267 hPa | 0 mm | - | 222 W/m² | - |
| 1778183156 | 13.33° C | 38% | 4267.2 hPa | 0 mm | - | 721 W/m² | - |
| 1778182852 | 13.89° C | 38% | 4267.2 hPa | 0 mm | - | 231 W/m² | - |
| 1778182549 | 13.33° C | 39% | 4267.4 hPa | 0 mm | - | 195 W/m² | - |
| 1778182246 | 13.33° C | 39% | 4267.2 hPa | 0 mm | - | 211 W/m² | - |
| 1778181942 | 13.33° C | 38% | 4267.3 hPa | 0 mm | - | 150 W/m² | - |
| 1778181639 | 14.44° C | 37% | 4267.6 hPa | 0 mm | - | 238 W/m² | - |
| 1778181335 | 14.44° C | 38% | 4267.3 hPa | 0 mm | - | 776 W/m² | - |
| 1778181032 | 13.33° C | 37% | 4267.2 hPa | 0 mm | - | 773 W/m² | - |
| 1778180729 | 13.89° C | 38% | 4267.2 hPa | 0 mm | - | 214 W/m² | - |
| 1778180428 | 13.89° C | 39% | 4267.4 hPa | 0 mm | - | 766 W/m² | - |
| 1778180126 | 13.33° C | 38% | 4267.5 hPa | 0 mm | - | 335 W/m² | - |
| 1778179822 | 14.44° C | 38% | 4267.6 hPa | 0 mm | - | 739 W/m² | - |
| 1778179521 | 13.89° C | 37% | 4267.3 hPa | 0 mm | - | 781 W/m² | - |
| 1778179218 | 13.33° C | 40% | 4267.6 hPa | 0 mm | - | 753 W/m² | - |
| 1778178914 | 13.89° C | 39% | 4267.5 hPa | 0 mm | - | 745 W/m² | - |
| 1778178611 | 13.89° C | 38% | 4267.8 hPa | 0 mm | - | 758 W/m² | - |
| 1778178307 | 12.78° C | 39% | 4267.8 hPa | 0 mm | - | 194 W/m² | - |
* Rain latest hour (hover to see other rain measurements)
** Current wind speed in m/s (hover to see current wind gust speed)